ENT4913 EPWR-HEMA

Flight info

Callsign ENT4913
Flight time 3h 58m
Altitude 33000
Route PEKOT L616 DESEN DCT VALPI DCT XOMBA DCT KEROP DCT NISVA Y505 NIKTI UN127 LMO UL618 DESUG/N0447F350 UL618 MES UN139 KPC UL54 PAXIS L607 NABSI P557 LOTOB DCT KUNKI P751 LXR M999 ELELI V730 ALKUN ALKUN1C
Aircraft B738/M-SDE2E3FGHIRWXY/LB1

Departure

Time 2026-04-28 14:19
Airport Copernicus Wrocław Airport (EPWR)

Arrival

Time 2026-04-28 18:17
Airport Marsa Alam International Airport (HEMA)
Time Latitude Longitude Altitude Speed Heading
2026-04-28 13:39 51.10996 16.87564 409 ft 0 kts 26°
2026-04-28 14:11 51.10988 16.87558 420 ft 3 kts 23°
2026-04-28 14:11 51.10967 16.87546 417 ft 3 kts
2026-04-28 14:11 51.10944 16.87544 412 ft 3 kts 349°
2026-04-28 14:11 51.10925 16.87556 411 ft 3 kts 312°
2026-04-28 14:12 51.10919 16.87567 409 ft 0 kts 296°
2026-04-28 14:15 51.10919 16.87566 409 ft 2 kts 296°
2026-04-28 14:15 51.10923 16.87554 411 ft 0 kts 296°
2026-04-28 14:15 51.10941 16.87497 410 ft 12 kts 296°
2026-04-28 14:16 51.10914 16.87397 420 ft 12 kts 201°
2026-04-28 14:16 51.10850 16.87350 411 ft 19 kts 209°
2026-04-28 14:16 51.10712 16.87235 406 ft 16 kts 220°
2026-04-28 14:16 51.10737 16.87058 413 ft 22 kts 290°
2026-04-28 14:17 51.10817 16.86788 413 ft 32 kts 291°
2026-04-28 14:17 51.10825 16.86644 409 ft 5 kts 284°
2026-04-28 14:17 51.10832 16.86628 410 ft 3 kts 324°
2026-04-28 14:17 51.10845 16.86628 409 ft 4 kts 18°
2026-04-28 14:18 51.10853 16.86679 410 ft 9 kts 112°
2026-04-28 14:18 51.10705 16.87164 414 ft 89 kts 117°
2026-04-28 14:18 51.10328 16.88403 411 ft 156 kts 117°
2026-04-28 14:18 51.09801 16.90083 972 ft 178 kts 113°
2026-04-28 14:19 51.09237 16.91961 1764 ft 193 kts 113°
2026-04-28 14:19 51.08694 16.93855 2509 ft 196 kts 112°
2026-04-28 14:19 51.07815 16.95591 3264 ft 203 kts 144°
2026-04-28 14:19 51.06554 16.96586 4104 ft 204 kts 159°
2026-04-28 14:20 51.05239 16.97334 4909 ft 202 kts 159°
2026-04-28 14:20 51.03838 16.97524 5470 ft 220 kts 193°
2026-04-28 14:20 51.02359 16.96313 5412 ft 259 kts 213°
2026-04-28 14:20 51.00813 16.94790 6250 ft 257 kts 211°
2026-04-28 14:21 50.99226 16.93400 7037 ft 269 kts 210°
2026-04-28 14:21 50.97475 16.91972 7340 ft 298 kts 208°
2026-04-28 14:21 50.95548 16.90461 7810 ft 317 kts 208°
2026-04-28 14:21 50.93728 16.88554 8730 ft 315 kts 228°
2026-04-28 14:22 50.92544 16.85614 9339 ft 323 kts 253°
2026-04-28 14:22 50.92255 16.82055 9844 ft 333 kts 278°
2026-04-28 14:22 50.92893 16.78568 10758 ft 326 kts 297°
2026-04-28 14:22 50.93845 16.75505 12556 ft 290 kts 298°
2026-04-28 14:23 50.94686 16.72805 14420 ft 260 kts 299°
2026-04-28 14:23 50.95478 16.70232 15232 ft 265 kts 295°
2026-04-28 14:23 50.95885 16.67166 14582 ft 321 kts 272°
2026-04-28 14:23 50.95283 16.63250 12822 ft 408 kts 245°
2026-04-28 14:24 50.93322 16.59966 12958 ft 403 kts 215°
2026-04-28 14:24 50.90849 16.58405 13429 ft 380 kts 190°
2026-04-28 14:24 50.88301 16.58610 13726 ft 361 kts 163°
2026-04-28 14:24 50.86178 16.60539 14223 ft 349 kts 135°
2026-04-28 14:25 50.84467 16.63189 15250 ft 339 kts 136°
2026-04-28 14:25 50.82834 16.65783 16379 ft 328 kts 130°
2026-04-28 14:25 50.81365 16.68472 17479 ft 318 kts 130°
2026-04-28 14:25 50.79950 16.71071 18607 ft 305 kts 130°
2026-04-28 14:26 50.78569 16.73596 19393 ft 303 kts 130°
2026-04-28 14:26 50.77180 16.76125 19931 ft 307 kts 131°
2026-04-28 14:26 50.75767 16.78685 20483 ft 311 kts 131°
2026-04-28 14:26 50.74334 16.81272 21055 ft 314 kts 131°
2026-04-28 14:27 50.72889 16.83874 21623 ft 317 kts 131°
2026-04-28 14:27 50.71426 16.86503 22185 ft 320 kts 131°
2026-04-28 14:27 50.69946 16.89158 22741 ft 324 kts 131°
2026-04-28 14:27 50.68452 16.91836 23287 ft 327 kts 131°
2026-04-28 14:28 50.66940 16.94542 23822 ft 331 kts 131°
2026-04-28 14:28 50.65411 16.97276 24269 ft 334 kts 132°
2026-04-28 14:28 50.63864 17.00038 24719 ft 337 kts 132°
2026-04-28 14:28 50.62318 17.02795 25149 ft 341 kts 132°
2026-04-28 14:29 50.60735 17.05617 25497 ft 349 kts 132°
2026-04-28 14:29 50.59088 17.08550 25642 ft 363 kts 132°
2026-04-28 14:29 50.57381 17.11584 25777 ft 378 kts 132°
2026-04-28 14:29 50.55601 17.14743 25892 ft 393 kts 132°
2026-04-28 14:30 50.53749 17.18024 25999 ft 408 kts 133°
2026-04-28 14:30 50.51829 17.21411 26055 ft 422 kts 133°
2026-04-28 14:30 50.49839 17.24915 26152 ft 435 kts 133°
2026-04-28 14:30 50.47793 17.28515 26246 ft 448 kts 133°
2026-04-28 14:31 50.45691 17.32212 26328 ft 460 kts 133°
2026-04-28 14:31 50.43561 17.35955 26483 ft 469 kts 133°
2026-04-28 14:31 50.41377 17.39784 26793 ft 474 kts 133°
2026-04-28 14:31 50.39072 17.43525 27050 ft 478 kts 143°
2026-04-28 14:32 50.36239 17.46170 27367 ft 473 kts 162°
2026-04-28 14:32 50.33167 17.47971 27823 ft 471 kts 164°
2026-04-28 14:32 50.30081 17.49779 28188 ft 475 kts 163°
2026-04-28 14:32 50.26987 17.51639 28503 ft 477 kts 165°
2026-04-28 14:33 50.23814 17.53415 27414 ft 501 kts 166°
2026-04-28 14:33 50.20560 17.54647 28108 ft 485 kts 177°
2026-04-28 14:33 50.17259 17.55325 29006 ft 473 kts 180°
2026-04-28 14:33 50.14016 17.55995 29538 ft 472 kts 178°
2026-04-28 14:34 50.07490 17.58072 30015 ft 482 kts 173°
2026-04-28 14:34 50.04498 17.59220 30359 ft 482 kts 173°
2026-04-28 14:34 50.01243 17.60480 30732 ft 482 kts 173°
2026-04-28 14:35 49.97982 17.61712 30962 ft 483 kts 174°
2026-04-28 14:35 49.94757 17.62897 31263 ft 482 kts 174°
2026-04-28 14:35 49.91489 17.64071 31584 ft 481 kts 175°
2026-04-28 14:35 49.88231 17.65222 31924 ft 480 kts 175°
2026-04-28 14:36 49.84964 17.66365 32233 ft 480 kts 175°
2026-04-28 14:36 49.81702 17.67502 32537 ft 480 kts 175°
2026-04-28 14:36 49.78445 17.68636 32841 ft 480 kts 175°
2026-04-28 14:36 49.75188 17.69770 33148 ft 480 kts 176°
2026-04-28 14:37 49.71932 17.70904 33451 ft 479 kts 176°
2026-04-28 14:37 49.68677 17.72037 33740 ft 479 kts 176°
2026-04-28 14:37 49.65427 17.73167 34001 ft 479 kts 176°
2026-04-28 14:37 49.62172 17.74299 34269 ft 479 kts 176°
2026-04-28 14:38 49.58927 17.75427 34485 ft 479 kts 176°
2026-04-28 14:38 49.55676 17.76556 34715 ft 478 kts 176°
2026-04-28 14:38 49.52426 17.77682 34950 ft 478 kts 176°
2026-04-28 14:38 49.49180 17.78806 35121 ft 478 kts 176°
2026-04-28 14:39 49.45941 17.79926 35195 ft 478 kts 176°
2026-04-28 14:39 49.39424 17.82179 35196 ft 479 kts 176°
2026-04-28 14:40 49.32933 17.84424 35196 ft 477 kts 176°
2026-04-28 14:40 49.26459 17.86659 35192 ft 476 kts 176°
2026-04-28 14:41 49.20013 17.88884 35182 ft 474 kts 176°
2026-04-28 14:41 49.13573 17.91112 35173 ft 474 kts 176°
2026-04-28 14:42 49.07188 17.93328 35178 ft 473 kts 176°
2026-04-28 14:42 49.00748 17.95284 35152 ft 468 kts 184°
2026-04-28 14:43 48.94281 17.95833 35153 ft 464 kts 188°
2026-04-28 14:43 48.87813 17.96184 35145 ft 465 kts 187°
2026-04-28 14:44 48.81327 17.96665 35150 ft 467 kts 186°
2026-04-28 14:44 48.74874 17.97237 35144 ft 468 kts 186°
2026-04-28 14:45 48.68365 17.97827 35140 ft 469 kts 186°
2026-04-28 14:45 48.61841 17.98417 35126 ft 469 kts 186°
2026-04-28 14:46 48.55338 17.99001 35130 ft 469 kts 186°
2026-04-28 14:46 48.48822 17.99584 35163 ft 468 kts 187°
2026-04-28 14:47 48.42314 18.00162 35157 ft 469 kts 186°
2026-04-28 14:47 48.35831 18.00739 35150 ft 470 kts 186°
2026-04-28 14:48 48.29304 18.01320 35139 ft 469 kts 187°
2026-04-28 14:48 48.22793 18.01899 35149 ft 469 kts 187°
2026-04-28 14:49 48.16267 18.02480 35160 ft 469 kts 187°
2026-04-28 14:49 48.09750 18.03060 35154 ft 469 kts 187°
2026-04-28 14:50 48.03242 18.03644 35147 ft 469 kts 188°
2026-04-28 14:50 47.96761 18.04227 35154 ft 469 kts 188°
2026-04-28 14:51 47.90239 18.04827 35161 ft 470 kts 188°
2026-04-28 14:51 47.83702 18.05433 35149 ft 470 kts 188°
2026-04-28 14:52 47.77157 18.06546 35160 ft 485 kts 175°
2026-04-28 14:52 47.73947 18.08273 35144 ft 497 kts 163°
2026-04-28 14:52 47.70939 18.10888 35165 ft 506 kts 153°
2026-04-28 14:53 47.65219 18.17020 35160 ft 508 kts 152°
2026-04-28 14:53 46.82121 18.83949 42876 ft 31551 kts 152°
2026-04-28 14:53 46.36129 19.19160 42742 ft 496 kts 161°
2026-04-28 14:54 46.32921 19.21109 41600 ft 503 kts 172°
2026-04-28 14:54 46.29525 19.22777 40090 ft 531 kts 161°
2026-04-28 14:54 46.26407 19.25695 38861 ft 551 kts 146°
2026-04-28 14:54 46.23664 19.29459 38333 ft 534 kts 137°
2026-04-28 14:55 46.21015 19.33002 38145 ft 506 kts 150°
2026-04-28 14:55 46.18076 19.35560 37818 ft 494 kts 152°
2026-04-28 14:55 46.15575 19.38243 37588 ft 500 kts 143°
2026-04-28 14:56 46.13803 19.40444 37570 ft 501 kts 141°
2026-04-28 14:59 46.10985 19.44123 37191 ft 505 kts 141°
2026-04-28 14:59 46.08339 19.47487 36939 ft 507 kts 142°
2026-04-28 15:00 46.05637 19.50770 36676 ft 508 kts 144°
2026-04-28 15:00 46.02902 19.53975 36414 ft 506 kts 144°
2026-04-28 15:00 46.00155 19.57124 36161 ft 504 kts 145°
2026-04-28 15:00 45.97405 19.60239 35905 ft 502 kts 146°
2026-04-28 15:01 45.94660 19.63337 35652 ft 501 kts 146°
2026-04-28 15:01 45.91921 19.66426 35399 ft 500 kts 146°
2026-04-28 15:01 45.89194 19.69507 35192 ft 498 kts 146°
2026-04-28 15:02 45.83794 19.75614 35133 ft 494 kts 145°
2026-04-28 15:02 45.78420 19.81691 35125 ft 490 kts 146°
2026-04-28 15:03 45.73087 19.87706 35128 ft 486 kts 146°
2026-04-28 15:03 45.67788 19.93667 35127 ft 483 kts 146°
2026-04-28 15:04 45.62515 19.99582 35134 ft 480 kts 146°
2026-04-28 15:04 45.57267 20.05455 35139 ft 477 kts 146°
2026-04-28 15:05 45.52928 20.10301 35133 ft 476 kts 146°
2026-04-28 15:05 45.46881 20.17036 35139 ft 473 kts 146°
2026-04-28 15:06 45.41699 20.22793 35140 ft 473 kts 146°
2026-04-28 15:06 45.37294 20.27672 35156 ft 483 kts 146°
2026-04-28 15:07 45.31951 20.33576 35142 ft 494 kts 146°
2026-04-28 15:07 45.26458 20.39636 35142 ft 502 kts 146°
2026-04-28 15:08 45.20927 20.45728 35139 ft 504 kts 146°
2026-04-28 15:08 45.15372 20.51831 35130 ft 505 kts 146°
2026-04-28 15:09 45.09813 20.57921 35128 ft 504 kts 146°
2026-04-28 15:09 45.04296 20.63948 35083 ft 502 kts 146°
2026-04-28 15:10 44.98780 20.69960 35086 ft 500 kts 146°
2026-04-28 15:10 44.93275 20.75942 35088 ft 498 kts 146°
2026-04-28 15:11 44.87788 20.81892 35084 ft 496 kts 146°
2026-04-28 15:11 44.82317 20.87808 35089 ft 495 kts 146°
2026-04-28 15:12 44.76848 20.93708 35084 ft 495 kts 146°
2026-04-28 15:12 44.71411 20.99559 35086 ft 495 kts 146°
2026-04-28 15:13 44.65925 21.05449 35082 ft 496 kts 146°
2026-04-28 15:13 44.60435 21.11328 35083 ft 497 kts 146°
2026-04-28 15:14 44.54923 21.17217 35077 ft 498 kts 146°
2026-04-28 15:14 44.49398 21.23105 35082 ft 499 kts 146°
2026-04-28 15:15 44.43866 21.28987 35073 ft 500 kts 146°
2026-04-28 15:15 44.38323 21.34866 35076 ft 500 kts 146°
2026-04-28 15:16 44.32771 21.40740 35063 ft 501 kts 145°
2026-04-28 15:16 44.27209 21.46611 35062 ft 500 kts 145°
2026-04-28 15:17 44.21681 21.52431 35064 ft 500 kts 145°
2026-04-28 15:17 44.16127 21.58265 35059 ft 500 kts 145°
2026-04-28 15:18 44.10567 21.64090 35062 ft 500 kts 145°
2026-04-28 15:18 44.05011 21.69898 35036 ft 499 kts 145°
2026-04-28 15:19 43.99498 21.75647 35045 ft 498 kts 145°
2026-04-28 15:19 43.93963 21.81405 35037 ft 497 kts 145°
2026-04-28 15:20 43.88437 21.87141 35046 ft 495 kts 145°
2026-04-28 15:20 43.82921 21.92851 35041 ft 494 kts 145°
2026-04-28 15:21 43.77411 21.98542 35036 ft 493 kts 145°
2026-04-28 15:21 43.71917 22.04204 35034 ft 492 kts 145°
2026-04-28 15:22 43.66455 22.09819 35022 ft 491 kts 145°
2026-04-28 15:22 43.60972 22.15443 35025 ft 491 kts 145°
2026-04-28 15:23 43.55475 22.21068 35015 ft 491 kts 146°
2026-04-28 15:23 43.49987 22.26671 35027 ft 491 kts 146°
2026-04-28 15:24 43.44494 22.32266 35034 ft 491 kts 145°
2026-04-28 15:24 43.38994 22.37855 35041 ft 492 kts 145°
2026-04-28 15:25 43.33515 22.43409 35031 ft 493 kts 145°
2026-04-28 15:25 43.27994 22.48994 35035 ft 493 kts 146°
2026-04-28 15:26 43.22471 22.54567 35037 ft 493 kts 146°
2026-04-28 15:26 43.16935 22.60140 35035 ft 494 kts 146°
2026-04-28 15:27 43.11392 22.65709 35039 ft 494 kts 146°
2026-04-28 15:27 43.05848 22.71264 35036 ft 494 kts 146°
2026-04-28 15:28 43.00301 22.76809 35035 ft 494 kts 146°
2026-04-28 15:28 42.94792 22.82332 35037 ft 494 kts 145°
2026-04-28 15:29 42.89290 22.87964 35032 ft 494 kts 144°
2026-04-28 15:29 42.83800 22.93594 35037 ft 493 kts 144°
2026-04-28 15:30 42.78315 22.99186 35029 ft 492 kts 144°
2026-04-28 15:30 42.72831 23.04755 35032 ft 490 kts 145°
2026-04-28 15:31 42.67374 23.10281 35034 ft 489 kts 145°
2026-04-28 15:31 42.61919 23.15794 35046 ft 488 kts 145°
2026-04-28 15:32 42.56507 23.21251 35038 ft 487 kts 145°
2026-04-28 15:32 42.51073 23.26719 35042 ft 486 kts 145°
2026-04-28 15:33 42.45640 23.32173 35032 ft 485 kts 145°
2026-04-28 15:33 42.40215 23.37607 35042 ft 484 kts 145°
2026-04-28 15:34 42.34800 23.43017 35057 ft 484 kts 145°
2026-04-28 15:34 42.29373 23.48414 35041 ft 484 kts 147°
2026-04-28 15:35 42.23761 23.53406 35056 ft 483 kts 149°
2026-04-28 15:35 42.15216 23.60645 35053 ft 484 kts 150°
2026-04-28 15:36 42.09554 23.65480 35036 ft 484 kts 149°
2026-04-28 15:36 42.03870 23.70356 35049 ft 484 kts 149°
2026-04-28 15:37 41.98186 23.75228 35058 ft 485 kts 149°
2026-04-28 15:37 41.93412 23.79309 35049 ft 486 kts 149°
2026-04-28 15:38 41.86781 23.84965 35035 ft 486 kts 149°
2026-04-28 15:38 41.81071 23.89822 35051 ft 485 kts 149°
2026-04-28 15:39 41.75368 23.94664 35049 ft 484 kts 149°
2026-04-28 15:39 41.69680 23.99482 35049 ft 483 kts 149°
2026-04-28 15:40 41.64002 24.04280 35051 ft 482 kts 149°
2026-04-28 15:40 41.58368 24.09031 35053 ft 481 kts 149°
2026-04-28 15:41 41.52706 24.13824 35056 ft 482 kts 148°
2026-04-28 15:41 41.47137 24.18801 35061 ft 481 kts 147°
2026-04-28 15:42 41.41593 24.23804 35058 ft 481 kts 147°
2026-04-28 15:42 41.36154 24.28660 35051 ft 481 kts 147°
2026-04-28 15:43 41.30578 24.33606 35068 ft 482 kts 147°
2026-04-28 15:43 41.25000 24.38542 35059 ft 482 kts 147°
2026-04-28 15:44 41.19392 24.43469 35067 ft 483 kts 149°
2026-04-28 15:44 41.13507 24.47475 35071 ft 482 kts 156°
2026-04-28 15:45 41.07459 24.51206 35069 ft 481 kts 156°
2026-04-28 15:45 41.01578 24.54921 35076 ft 481 kts 155°
2026-04-28 15:46 40.95554 24.58783 35074 ft 481 kts 155°
2026-04-28 15:46 40.89518 24.62638 35069 ft 481 kts 155°
2026-04-28 15:47 40.83480 24.66424 35078 ft 480 kts 156°
2026-04-28 15:47 40.77439 24.70203 35084 ft 480 kts 156°
2026-04-28 15:48 40.71435 24.74076 35078 ft 481 kts 154°
2026-04-28 15:48 40.65422 24.77953 35083 ft 480 kts 155°
2026-04-28 15:49 40.59383 24.81741 35086 ft 480 kts 155°
2026-04-28 15:49 40.53363 24.85529 35087 ft 480 kts 155°
2026-04-28 15:50 40.47337 24.89317 35087 ft 479 kts 155°
2026-04-28 15:50 40.41317 24.93091 35083 ft 479 kts 155°
2026-04-28 15:51 40.35306 24.96849 35087 ft 478 kts 155°
2026-04-28 15:51 40.29301 25.00596 35090 ft 478 kts 155°
2026-04-28 15:52 40.23329 25.04315 35087 ft 478 kts 155°
2026-04-28 15:52 40.17324 25.08048 35090 ft 477 kts 155°
2026-04-28 15:53 40.12338 25.11140 35093 ft 477 kts 155°
2026-04-28 15:53 40.06345 25.14852 35080 ft 477 kts 155°
2026-04-28 15:54 40.00354 25.18553 35077 ft 476 kts 155°
2026-04-28 15:54 39.94358 25.22252 35075 ft 476 kts 155°
2026-04-28 15:55 39.88227 25.25486 35082 ft 475 kts 163°
2026-04-28 15:55 39.81906 25.28012 35078 ft 475 kts 165°
2026-04-28 15:56 39.75573 25.30490 35079 ft 475 kts 164°
2026-04-28 15:56 39.69288 25.33013 35088 ft 475 kts 163°
2026-04-28 15:57 39.62973 25.35585 35085 ft 476 kts 163°
2026-04-28 15:57 39.56654 25.38162 35077 ft 476 kts 163°
2026-04-28 15:58 39.50328 25.40735 35069 ft 476 kts 163°
2026-04-28 15:58 39.44001 25.43302 35074 ft 476 kts 163°
2026-04-28 15:59 39.37675 25.45862 35076 ft 477 kts 163°
2026-04-28 15:59 39.31334 25.48423 35070 ft 477 kts 163°
2026-04-28 16:00 39.25000 25.50977 35066 ft 477 kts 163°
2026-04-28 16:00 39.18652 25.53532 35063 ft 478 kts 163°
2026-04-28 16:01 39.12308 25.56080 35061 ft 478 kts 163°
2026-04-28 16:01 39.05954 25.58628 35056 ft 478 kts 163°
2026-04-28 16:02 38.99642 25.61153 35057 ft 478 kts 163°
2026-04-28 16:02 38.93283 25.63693 35058 ft 478 kts 163°
2026-04-28 16:03 38.86925 25.66228 35056 ft 478 kts 163°
2026-04-28 16:03 38.80564 25.68758 35041 ft 478 kts 163°
2026-04-28 16:04 38.74207 25.71282 35049 ft 478 kts 163°
2026-04-28 16:04 38.67877 25.73789 35047 ft 478 kts 163°
2026-04-28 16:05 38.61516 25.76306 35050 ft 479 kts 163°
2026-04-28 16:05 38.55149 25.78822 35036 ft 479 kts 164°
2026-04-28 16:06 38.48784 25.81333 35035 ft 479 kts 164°
2026-04-28 16:06 38.42407 25.83841 35032 ft 479 kts 164°
2026-04-28 16:07 38.36034 25.86345 35022 ft 479 kts 164°
2026-04-28 16:08 38.26521 25.90086 35033 ft 479 kts 164°
2026-04-28 16:08 38.20241 25.92723 35015 ft 480 kts 161°
2026-04-28 16:09 38.10845 25.97107 35020 ft 479 kts 160°
2026-04-28 16:10 38.01428 26.01412 35024 ft 479 kts 161°
2026-04-28 16:10 37.92051 26.05643 35016 ft 478 kts 161°
2026-04-28 16:11 37.79505 26.11290 35023 ft 478 kts 161°
2026-04-28 16:12 37.70109 26.15519 35010 ft 478 kts 161°
2026-04-28 16:13 37.60749 26.19748 35008 ft 478 kts 161°
2026-04-28 16:14 37.49277 26.24905 35008 ft 479 kts 161°
2026-04-28 16:15 37.37174 26.30325 35005 ft 478 kts 161°
2026-04-28 16:15 37.30905 26.33124 34991 ft 478 kts 161°
2026-04-28 16:16 37.21517 26.37307 34991 ft 477 kts 161°
2026-04-28 16:17 37.12142 26.41466 34982 ft 476 kts 162°
2026-04-28 16:17 37.05894 26.44225 34979 ft 476 kts 162°
2026-04-28 16:18 36.99655 26.46975 34986 ft 475 kts 162°
2026-04-28 16:18 36.93410 26.49722 34979 ft 475 kts 162°
2026-04-28 16:19 36.87164 26.52468 34982 ft 475 kts 162°
2026-04-28 16:19 36.80965 26.55196 34984 ft 475 kts 162°
2026-04-28 16:20 36.74724 26.57938 34990 ft 475 kts 162°
2026-04-28 16:20 36.68482 26.60672 34979 ft 475 kts 162°
2026-04-28 16:21 36.62232 26.63404 34975 ft 475 kts 162°
2026-04-28 16:21 36.55988 26.66129 34980 ft 475 kts 162°
2026-04-28 16:22 36.49782 26.68832 34982 ft 475 kts 162°
2026-04-28 16:22 36.43537 26.71546 34974 ft 476 kts 163°
2026-04-28 16:23 36.37281 26.74262 34980 ft 476 kts 163°
2026-04-28 16:23 36.31057 26.76958 34982 ft 476 kts 163°
2026-04-28 16:24 36.24809 26.79653 34981 ft 476 kts 163°
2026-04-28 16:24 36.18549 26.82345 34974 ft 476 kts 163°
2026-04-28 16:25 36.12288 26.85034 34984 ft 476 kts 163°
2026-04-28 16:25 36.06073 26.87698 34991 ft 476 kts 163°
2026-04-28 16:26 35.99810 26.90379 34985 ft 476 kts 163°
2026-04-28 16:26 35.93549 26.93053 34978 ft 476 kts 163°
2026-04-28 16:27 35.87290 26.95722 34983 ft 476 kts 163°
2026-04-28 16:28 35.77894 26.99716 34983 ft 475 kts 163°
2026-04-28 16:28 35.71633 27.02356 34981 ft 475 kts 163°
2026-04-28 16:29 35.62260 27.06298 34975 ft 475 kts 163°
2026-04-28 16:30 35.52875 27.10235 34966 ft 475 kts 163°
2026-04-28 16:30 35.46616 27.12857 34975 ft 476 kts 163°
2026-04-28 16:31 35.40280 27.15095 34954 ft 470 kts 175°
2026-04-28 16:31 35.34408 27.15833 34959 ft 468 kts 178°
2026-04-28 16:32 35.28448 27.16515 34965 ft 468 kts 178°
2026-04-28 16:32 35.18717 27.17750 34980 ft 469 kts 177°
2026-04-28 16:33 35.14372 27.18315 34986 ft 469 kts 177°
2026-04-28 16:33 35.05733 27.19427 34981 ft 468 kts 177°
2026-04-28 16:34 34.99249 27.20254 34980 ft 468 kts 177°
2026-04-28 16:34 34.92809 27.21072 34981 ft 468 kts 177°
2026-04-28 16:35 34.86326 27.21893 34995 ft 468 kts 177°
2026-04-28 16:35 34.79845 27.22713 34985 ft 468 kts 177°
2026-04-28 16:36 34.73365 27.23532 34974 ft 469 kts 177°
2026-04-28 16:36 34.66880 27.24351 34983 ft 468 kts 177°
2026-04-28 16:37 34.60389 27.25169 34991 ft 469 kts 177°
2026-04-28 16:38 34.50654 27.26393 34998 ft 469 kts 177°
2026-04-28 16:38 34.44158 27.27208 34997 ft 469 kts 177°
2026-04-28 16:39 34.37663 27.28021 34997 ft 469 kts 177°
2026-04-28 16:39 34.31165 27.28834 35000 ft 469 kts 177°
2026-04-28 16:40 34.24706 27.29640 34994 ft 469 kts 177°
2026-04-28 16:40 34.18204 27.30450 34999 ft 469 kts 177°
2026-04-28 16:41 34.11712 27.31257 35003 ft 469 kts 177°
2026-04-28 16:41 34.06305 27.31927 35003 ft 469 kts 177°
2026-04-28 16:42 33.99809 27.32737 34998 ft 470 kts 176°
2026-04-28 16:42 33.93491 27.34879 35008 ft 477 kts 158°
2026-04-28 16:43 33.87804 27.39051 35009 ft 480 kts 147°
2026-04-28 16:43 33.82289 27.43615 35003 ft 481 kts 147°
2026-04-28 16:44 33.76767 27.48140 35004 ft 480 kts 148°
2026-04-28 16:44 33.71216 27.52620 34994 ft 480 kts 148°
2026-04-28 16:45 33.65651 27.57078 35006 ft 480 kts 148°
2026-04-28 16:45 33.60120 27.61498 35007 ft 480 kts 148°
2026-04-28 16:46 33.54553 27.65943 35005 ft 481 kts 148°
2026-04-28 16:46 33.48986 27.70382 35005 ft 481 kts 148°
2026-04-28 16:47 33.43411 27.74822 34991 ft 481 kts 149°
2026-04-28 16:47 33.37821 27.79266 35006 ft 482 kts 149°
2026-04-28 16:48 33.32247 27.83689 35013 ft 484 kts 149°
2026-04-28 16:48 33.26622 27.88147 35013 ft 486 kts 149°
2026-04-28 16:49 33.20978 27.92613 35009 ft 487 kts 149°
2026-04-28 16:49 33.15318 27.97085 34993 ft 489 kts 149°
2026-04-28 16:50 33.09634 28.01569 35009 ft 490 kts 149°
2026-04-28 16:50 33.03945 28.06049 35010 ft 491 kts 149°
2026-04-28 16:51 32.98275 28.10508 35012 ft 491 kts 150°
2026-04-28 16:51 32.92559 28.14995 35009 ft 492 kts 150°
2026-04-28 16:52 32.86851 28.19470 34990 ft 491 kts 150°
2026-04-28 16:52 32.81132 28.23947 35004 ft 491 kts 150°
2026-04-28 16:53 32.75421 28.28409 35012 ft 492 kts 150°
2026-04-28 16:53 32.69697 28.32874 35011 ft 493 kts 150°
2026-04-28 16:54 32.63955 28.37347 35012 ft 494 kts 150°
2026-04-28 16:54 32.58201 28.41822 35012 ft 495 kts 150°
2026-04-28 16:55 32.52442 28.46294 35007 ft 495 kts 150°
2026-04-28 16:55 32.46680 28.50762 35012 ft 495 kts 150°
2026-04-28 16:56 32.40959 28.55191 35009 ft 494 kts 151°
2026-04-28 16:56 32.35502 28.59410 35005 ft 492 kts 151°
2026-04-28 16:57 32.29774 28.63831 35008 ft 490 kts 151°
2026-04-28 16:57 32.24068 28.68228 35010 ft 489 kts 152°
2026-04-28 16:58 32.18345 28.72630 35020 ft 491 kts 152°
2026-04-28 16:58 32.12599 28.77043 35020 ft 493 kts 152°
2026-04-28 16:59 32.06869 28.81437 35016 ft 496 kts 152°
2026-04-28 16:59 32.01079 28.85872 35016 ft 498 kts 152°
2026-04-28 17:00 31.95259 28.90323 35007 ft 499 kts 152°
2026-04-28 17:00 31.89427 28.94776 35012 ft 500 kts 152°
2026-04-28 17:01 31.83585 28.99228 35020 ft 500 kts 152°
2026-04-28 17:01 31.77742 29.03668 35010 ft 499 kts 154°
2026-04-28 17:01 31.74683 29.05515 35007 ft 490 kts 165°
2026-04-28 17:02 31.71465 29.06714 35020 ft 481 kts 174°
2026-04-28 17:02 31.65002 29.07447 35028 ft 464 kts 187°
2026-04-28 17:03 31.55304 29.07461 35018 ft 465 kts 187°
2026-04-28 17:03 31.48837 29.07525 35013 ft 465 kts 187°
2026-04-28 17:04 31.39127 29.07654 35000 ft 465 kts 187°
2026-04-28 17:05 31.29400 29.07782 35013 ft 466 kts 187°
2026-04-28 17:06 31.19656 29.07907 34980 ft 468 kts 188°
2026-04-28 17:06 31.09889 29.08053 35003 ft 469 kts 188°
2026-04-28 17:07 31.03404 29.08149 35007 ft 470 kts 188°
2026-04-28 17:07 30.96854 29.08244 35011 ft 471 kts 188°
2026-04-28 17:08 30.90303 29.08338 34996 ft 471 kts 188°
2026-04-28 17:08 30.83751 29.08431 35008 ft 471 kts 188°
2026-04-28 17:09 30.77174 29.08524 35006 ft 472 kts 188°
2026-04-28 17:09 30.70613 29.08617 34971 ft 472 kts 188°
2026-04-28 17:10 30.64096 29.08708 34995 ft 471 kts 188°
2026-04-28 17:10 30.57542 29.08798 34995 ft 471 kts 188°
2026-04-28 17:11 30.50989 29.08890 34991 ft 470 kts 188°
2026-04-28 17:11 30.44440 29.08981 34979 ft 470 kts 188°
2026-04-28 17:12 30.37897 29.09069 34977 ft 470 kts 188°
2026-04-28 17:12 30.31365 29.09152 34984 ft 469 kts 188°
2026-04-28 17:13 30.24875 29.09233 34980 ft 469 kts 188°
2026-04-28 17:13 30.18343 29.09318 34963 ft 469 kts 188°
2026-04-28 17:14 30.11812 29.09400 34967 ft 469 kts 189°
2026-04-28 17:14 30.05280 29.09477 34973 ft 469 kts 189°
2026-04-28 17:15 29.98742 29.09551 34973 ft 470 kts 189°
2026-04-28 17:15 29.92205 29.09626 34969 ft 470 kts 189°
2026-04-28 17:16 29.85662 29.09700 34971 ft 470 kts 189°
2026-04-28 17:16 29.79159 29.09774 34969 ft 470 kts 189°
2026-04-28 17:17 29.72605 29.09847 34971 ft 470 kts 189°
2026-04-28 17:17 29.66064 29.09920 34963 ft 470 kts 189°
2026-04-28 17:18 29.59488 29.10253 34965 ft 482 kts 179°
2026-04-28 17:18 29.52974 29.12590 34979 ft 499 kts 164°
2026-04-28 17:19 29.46622 29.15883 34975 ft 501 kts 163°
2026-04-28 17:19 29.40315 29.19135 34971 ft 498 kts 163°
2026-04-28 17:20 29.34996 29.21802 34975 ft 498 kts 164°
2026-04-28 17:20 29.27614 29.25462 34983 ft 497 kts 164°
2026-04-28 17:21 29.21272 29.28606 34981 ft 497 kts 164°
2026-04-28 17:22 29.11805 29.33474 34970 ft 502 kts 157°
2026-04-28 17:22 29.06012 29.38101 34983 ft 510 kts 149°
2026-04-28 17:23 28.97493 29.45378 34984 ft 509 kts 150°
2026-04-28 17:23 28.91783 29.50166 34986 ft 509 kts 150°
2026-04-28 17:24 28.86058 29.54912 34977 ft 509 kts 150°
2026-04-28 17:24 28.80357 29.59624 34978 ft 508 kts 151°
2026-04-28 17:25 28.72704 29.65943 34992 ft 508 kts 151°
2026-04-28 17:26 28.66457 29.71096 34994 ft 508 kts 151°
2026-04-28 17:26 28.60717 29.75824 34997 ft 509 kts 151°
2026-04-28 17:27 28.54974 29.80549 34998 ft 509 kts 151°
2026-04-28 17:27 28.49243 29.85259 35001 ft 508 kts 152°
2026-04-28 17:28 28.43543 29.89935 35003 ft 509 kts 152°
2026-04-28 17:28 28.34928 29.96989 35014 ft 509 kts 152°
2026-04-28 17:29 28.29171 30.01696 35015 ft 509 kts 152°
2026-04-28 17:30 28.20538 30.08743 34978 ft 510 kts 152°
2026-04-28 17:30 28.12881 30.14982 35017 ft 509 kts 152°
2026-04-28 17:31 28.04249 30.22000 35027 ft 509 kts 152°
2026-04-28 17:32 27.95618 30.29003 35033 ft 509 kts 152°
2026-04-28 17:32 27.89859 30.33668 35032 ft 509 kts 152°
2026-04-28 17:33 27.84114 30.38317 35035 ft 508 kts 153°
2026-04-28 17:33 27.79337 30.42176 35029 ft 508 kts 153°
2026-04-28 17:34 27.72614 30.47601 35043 ft 508 kts 153°
2026-04-28 17:34 27.66894 30.52209 35038 ft 509 kts 153°
2026-04-28 17:35 27.61131 30.56847 35050 ft 509 kts 153°
2026-04-28 17:35 27.55369 30.61479 35021 ft 509 kts 153°
2026-04-28 17:36 27.49603 30.66107 35048 ft 508 kts 153°
2026-04-28 17:36 27.43832 30.70731 35053 ft 509 kts 153°
2026-04-28 17:37 27.38058 30.75353 35056 ft 509 kts 153°
2026-04-28 17:37 27.32288 30.79966 35058 ft 509 kts 153°
2026-04-28 17:38 27.26503 30.84584 35057 ft 509 kts 153°
2026-04-28 17:38 27.20726 30.89190 35059 ft 509 kts 154°
2026-04-28 17:39 27.14941 30.93795 35044 ft 510 kts 154°
2026-04-28 17:40 27.06254 31.00702 35034 ft 504 kts 154°
2026-04-28 17:40 27.01069 31.05766 35034 ft 501 kts 137°
2026-04-28 17:41 26.96690 31.11851 35049 ft 502 kts 135°
2026-04-28 17:41 26.92346 31.17986 35054 ft 503 kts 135°
2026-04-28 17:42 26.87957 31.24093 35043 ft 503 kts 136°
2026-04-28 17:42 26.83483 31.30237 35026 ft 515 kts 136°
2026-04-28 17:43 26.78880 31.36532 35013 ft 529 kts 136°
2026-04-28 17:43 26.74198 31.42945 34982 ft 534 kts 136°
2026-04-28 17:44 26.69517 31.49361 34979 ft 536 kts 136°
2026-04-28 17:44 26.64803 31.55810 34948 ft 535 kts 136°
2026-04-28 17:45 26.60088 31.62246 34931 ft 534 kts 136°
2026-04-28 17:45 26.55451 31.68565 34906 ft 532 kts 136°
2026-04-28 17:46 26.50689 31.75043 34853 ft 530 kts 136°
2026-04-28 17:46 26.46019 31.81388 34862 ft 528 kts 136°
2026-04-28 17:47 26.41354 31.87715 34901 ft 527 kts 136°
2026-04-28 17:47 26.36687 31.94034 34902 ft 528 kts 136°
2026-04-28 17:48 26.32012 32.00357 34903 ft 528 kts 136°
2026-04-28 17:48 26.27369 32.06629 34901 ft 529 kts 136°
2026-04-28 17:49 26.22678 32.12956 34904 ft 530 kts 136°
2026-04-28 17:49 26.17977 32.19291 34904 ft 531 kts 136°
2026-04-28 17:50 26.13259 32.25637 34903 ft 531 kts 136°
2026-04-28 17:50 26.08569 32.31936 34904 ft 531 kts 137°
2026-04-28 17:51 26.03841 32.38278 34889 ft 532 kts 137°
2026-04-28 17:51 25.99271 32.44402 34898 ft 531 kts 137°
2026-04-28 17:52 25.94880 32.50278 34900 ft 530 kts 137°
2026-04-28 17:52 25.87797 32.59742 34294 ft 519 kts 137°
2026-04-28 17:53 25.85499 32.62811 33899 ft 515 kts 137°
2026-04-28 17:53 25.83246 32.65812 33480 ft 511 kts 137°
2026-04-28 17:53 25.80976 32.68830 33054 ft 506 kts 137°
2026-04-28 17:53 25.78728 32.71819 32646 ft 502 kts 137°
2026-04-28 17:54 25.76500 32.74782 32248 ft 497 kts 136°
2026-04-28 17:54 25.74325 32.77743 31874 ft 495 kts 132°
2026-04-28 17:54 25.72355 32.80857 31598 ft 490 kts 129°
2026-04-28 17:54 25.70502 32.83999 31311 ft 484 kts 128°
2026-04-28 17:55 25.68698 32.87132 30954 ft 479 kts 127°
2026-04-28 17:55 25.66911 32.90230 30587 ft 475 kts 128°
2026-04-28 17:55 25.65112 32.93311 30224 ft 474 kts 128°
2026-04-28 17:55 25.63307 32.96368 29810 ft 473 kts 128°
2026-04-28 17:56 25.61517 32.99377 29376 ft 470 kts 128°
2026-04-28 17:56 25.59717 33.02387 28978 ft 466 kts 128°
2026-04-28 17:56 25.57934 33.05367 28548 ft 462 kts 127°
2026-04-28 17:56 25.56169 33.08314 28145 ft 457 kts 127°
2026-04-28 17:57 25.54424 33.11224 27757 ft 452 kts 127°
2026-04-28 17:57 25.52686 33.14120 27381 ft 447 kts 127°
2026-04-28 17:57 25.50974 33.16973 27001 ft 442 kts 127°
2026-04-28 17:57 25.49280 33.19794 26636 ft 438 kts 126°
2026-04-28 17:58 25.47604 33.22584 26257 ft 433 kts 126°
2026-04-28 17:58 25.45944 33.25344 25896 ft 429 kts 126°
2026-04-28 17:58 25.44297 33.28083 25529 ft 425 kts 126°
2026-04-28 17:58 25.42684 33.30763 25171 ft 421 kts 126°
2026-04-28 17:59 25.41064 33.33453 24809 ft 417 kts 125°
2026-04-28 17:59 25.39462 33.36111 24452 ft 414 kts 125°
2026-04-28 17:59 25.37869 33.38753 24097 ft 410 kts 125°
2026-04-28 17:59 25.36292 33.41368 23741 ft 407 kts 124°
2026-04-28 18:00 25.34727 33.43962 23384 ft 403 kts 124°
2026-04-28 18:00 25.33207 33.46551 22966 ft 400 kts 118°
2026-04-28 18:00 25.32303 33.49417 22621 ft 394 kts 96°
2026-04-28 18:00 25.32258 33.52400 22363 ft 384 kts 78°
2026-04-28 18:01 25.32882 33.55229 22127 ft 377 kts 70°
2026-04-28 18:01 25.33624 33.58024 21876 ft 381 kts 70°
2026-04-28 18:01 25.34382 33.60841 21615 ft 382 kts 70°
2026-04-28 18:01 25.35128 33.63655 21264 ft 380 kts 70°
2026-04-28 18:02 25.35854 33.66451 20904 ft 376 kts 71°
2026-04-28 18:02 25.36566 33.69230 20548 ft 373 kts 71°
2026-04-28 18:02 25.37257 33.71942 20206 ft 370 kts 71°
2026-04-28 18:02 25.37955 33.74682 19857 ft 367 kts 71°
2026-04-28 18:03 25.38632 33.77359 19515 ft 365 kts 71°
2026-04-28 18:03 25.39314 33.80065 19162 ft 366 kts 72°
2026-04-28 18:03 25.39997 33.82786 18798 ft 367 kts 72°
2026-04-28 18:03 25.40676 33.85494 18437 ft 365 kts 72°
2026-04-28 18:04 25.41355 33.88194 18066 ft 363 kts 72°
2026-04-28 18:04 25.42030 33.90874 17683 ft 360 kts 72°
2026-04-28 18:04 25.42696 33.93532 17317 ft 357 kts 72°
2026-04-28 18:04 25.43355 33.96167 16978 ft 354 kts 73°
2026-04-28 18:05 25.44008 33.98791 16626 ft 351 kts 73°
2026-04-28 18:05 25.44436 34.00512 16401 ft 350 kts 73°
2026-04-28 18:05 25.45291 34.03961 15943 ft 346 kts 73°
2026-04-28 18:05 25.45928 34.06525 15625 ft 345 kts 73°
2026-04-28 18:06 25.46566 34.09088 15294 ft 346 kts 73°
2026-04-28 18:06 25.47058 34.11689 14928 ft 346 kts 88°
2026-04-28 18:06 25.46764 34.14174 14601 ft 343 kts 107°
2026-04-28 18:06 25.46017 34.16670 14236 ft 341 kts 110°
2026-04-28 18:07 25.45243 34.19119 13847 ft 341 kts 109°
2026-04-28 18:07 25.44478 34.21597 13441 ft 339 kts 109°
2026-04-28 18:07 25.43732 34.24063 13038 ft 338 kts 109°
2026-04-28 18:07 25.42994 34.26522 12641 ft 336 kts 108°
2026-04-28 18:08 25.42262 34.28974 12245 ft 334 kts 108°
2026-04-28 18:08 25.41535 34.31409 11864 ft 333 kts 108°
2026-04-28 18:08 25.40810 34.33835 11476 ft 331 kts 108°
2026-04-28 18:08 25.40088 34.36244 11096 ft 329 kts 108°
2026-04-28 18:09 25.39369 34.38639 10712 ft 327 kts 108°
2026-04-28 18:09 25.38654 34.41018 10345 ft 326 kts 108°
2026-04-28 18:09 25.37940 34.43394 9968 ft 324 kts 108°
2026-04-28 18:09 25.37234 34.45735 9841 ft 314 kts 108°
2026-04-28 18:10 25.36558 34.47976 9812 ft 301 kts 108°
2026-04-28 18:10 25.35908 34.50131 9471 ft 300 kts 108°
2026-04-28 18:10 25.35249 34.52318 9187 ft 298 kts 108°
2026-04-28 18:10 25.34599 34.54475 8934 ft 294 kts 108°
2026-04-28 18:11 25.33957 34.56607 8669 ft 291 kts 108°
2026-04-28 18:11 25.33342 34.58736 8336 ft 290 kts 105°
2026-04-28 18:11 25.32825 34.60886 8015 ft 290 kts 104°
2026-04-28 18:11 25.32338 34.62994 7761 ft 287 kts 104°
2026-04-28 18:12 25.31938 34.65120 7452 ft 287 kts 91°
2026-04-28 18:12 25.32288 34.67186 7109 ft 285 kts 62°
2026-04-28 18:12 25.33467 34.68882 6858 ft 275 kts 35°
2026-04-28 18:12 25.35124 34.69811 6645 ft 263 kts
2026-04-28 18:13 25.36884 34.69924 6565 ft 247 kts 349°
2026-04-28 18:13 25.38479 34.69406 6456 ft 234 kts 330°
2026-04-28 18:13 25.39883 34.68543 6303 ft 228 kts 326°
2026-04-28 18:13 25.41248 34.67642 5768 ft 233 kts 326°
2026-04-28 18:14 25.42662 34.66711 5159 ft 239 kts 326°
2026-04-28 18:14 25.44091 34.65776 4548 ft 238 kts 326°
2026-04-28 18:14 25.45503 34.64853 3903 ft 234 kts 328°
2026-04-28 18:14 25.46907 34.63946 3198 ft 234 kts 329°
2026-04-28 18:15 25.48303 34.63057 2454 ft 225 kts 330°
2026-04-28 18:15 25.49584 34.62176 1875 ft 208 kts 331°
2026-04-28 18:15 25.50752 34.61467 1503 ft 181 kts 330°
2026-04-28 18:15 25.51786 34.60840 1184 ft 163 kts 332°
2026-04-28 18:16 25.52705 34.60252 889 ft 145 kts 333°
2026-04-28 18:16 25.53582 34.59723 579 ft 145 kts 328°
2026-04-28 18:16 25.54460 34.59172 352 ft 142 kts 328°
2026-04-28 18:16 25.55280 34.58645 254 ft 132 kts 336°
2026-04-28 18:17 25.55971 34.58215 261 ft 84 kts 336°
2026-04-28 18:17 25.56103 34.58157 258 ft 3 kts 342°
2026-04-28 18:17 25.56106 34.58150 258 ft 0 kts 285°
2026-04-28 18:17 25.56103 34.58142 258 ft 6 kts 256°
2026-04-28 18:18 25.56084 34.58123 258 ft 6 kts 205°
2026-04-28 18:18 25.56036 34.58151 259 ft 18 kts 135°
2026-04-28 18:18 25.55874 34.58289 262 ft 41 kts 146°
2026-04-28 18:18 25.55746 34.58358 260 ft 34 kts 154°
2026-04-28 18:19 25.55563 34.58476 257 ft 16 kts 150°
2026-04-28 18:19 25.55490 34.58566 255 ft 16 kts 99°
2026-04-28 18:19 25.55530 34.58653 255 ft 14 kts 55°
2026-04-28 18:19 25.55583 34.58753 250 ft 13 kts 60°
2026-04-28 18:20 25.55630 34.58848 241 ft 1 kts 70°
2026-04-28 18:20 25.55624 34.58882 241 ft 8 kts 113°
2026-04-28 18:20 25.55566 34.58931 241 ft 14 kts 153°
2026-04-28 18:20 25.55493 34.58985 241 ft 7 kts 124°
2026-04-28 18:21 25.55509 34.59058 241 ft 13 kts 61°
2026-04-28 18:21 25.55522 34.59081 241 ft 0 kts 60°
2026-04-28 18:23 25.55510 34.59060 241 ft 0 kts 60°